GONETS-M 24 (54151 NORAD) Tracking and Keplerian Element Data

This shows tracking and keplerian element data for the satellite.

Feedback or suggestion? Click here.




ElementValue
Catalog54151
NameGONETS-M 24
Epoch Orbit362
Epoch Day324.95910023
Epoch Year2022
RAAN78.6761
Inclination82.4999
Eccentricity0.0016476
Argument of Perigee192.8396
Mean Anonmoly273.8059
Mean Motion12.42874605
Decay Rate1E-07
L11 54151U 22139B 22324.95910023 .00000010 00000+0 00000+0 0 9994
L22 54151 82.4999 78.6761 0016476 192.8396 273.8059 12.42874605 3620



Live tracking and technical data element details for GONETS-M 24 (NORAD 54151). GONETS-M 24 can be tracked NOW for your location showing map with azimuth and elevation plus other details from your city location.







IsCatalogInMostPopularTable: catalog: 54151, numindb: 8
Update: records affected: 1



GetName: 54151 GONETS-M 24

Hit Count: updated at: Sun, 04 Dec 2022 21:48:14 GMT